This demonstration page uses our WeatherBlox Daily Observations layout. Learn more.

Left ArrowRight Arrow

39.51506, -84.39828

Hourly Observations for October 6, 2018

Temp ( °F °C ) Dew Point ( °F °C ) Humidity (%) Winds ( mph kmh ) Pressure ( in mb ) Visibility ( mi km ) Precip ( " mm )
12:15 am 00:15 Mostly Cloudy with Fog 65 18.4 65 18.3 99 99 Calm 30.03 1017 0.5 0.80467 0 0
12:35 am 00:35 Mostly Cloudy with Fog 66 19 66 18.9 99 99 Calm 30 1016 0.5 0.80467 0 0
12:55 am 00:55 Mostly Cloudy with Mist and Fog 66 19 66 18.9 99 99 Calm 30 1016 1.75 2.816345 0 0
1:15 am 01:15 Mostly Cloudy with Mist and Fog 66 19 66 18.9 99 99 Calm 30 1016 0.75 1.207005 0 0
1:35 am 01:35 Mostly Cloudy with Mist and Fog 65 18.5 65 18.4 99 99 Calm 30 1016 0.75 1.207005 0 0
1:55 am 01:55 Mostly Cloudy with Mist and Fog 65 18.5 65 18.4 99 99 Calm 30 1016 0.75 1.207005 0 0
2:15 am 02:15 Mostly Cloudy with Fog 64 18 64 17.9 99 99 Calm 30 1016 0.25 0.402335 0 0
2:35 am 02:35 Mostly Cloudy with Fog 65 18.2 65 18.2 100 100 Calm 30 1016 0.25 0.402335 0 0
2:55 am 02:55 Mostly Cloudy with Mist and Fog 65 18.5 65 18.4 99 99 Calm 30 1016 1.25 2.011675 0 0
3:15 am 03:15 Mostly Cloudy with Mist and Fog 65 18.5 65 18.4 99 99 Calm 30 1016 1.25 2.011675 0 0
3:35 am 03:35 Mostly Cloudy with Mist and Fog 66 18.8 66 18.7 99 99 Calm 30 1016 1.5 2.41401 0 0
3:55 am 03:55 Clear with Mist and Fog 65 18.6 65 18.6 100 100 Calm 30 1016 2.5 4.02335 0 0
4:15 am 04:15 Mostly Cloudy with Mist and Fog 66 18.8 66 18.7 99 99 Calm 30 1016 0.75 1.207005 0 0
4:35 am 04:35 Mostly Cloudy with Fog 65 18.5 65 18.4 99 99 Calm 30 1016 0.25 0.402335 0 0
4:55 am 04:55 Mostly Cloudy with Mist and Fog 66 19 66 18.9 99 99 Calm 30 1016 1 1.60934 0 0
5:15 am 05:15 Mostly Cloudy with Fog 65 18.6 65 18.5 99 99 Calm 30.03 1017 0.25 0.402335 0 0
5:35 am 05:35 Partly Cloudy with Mist and Fog 66 18.7 65 18.6 99 99 Calm 30.03 1017 1.25 2.011675 0 0
5:55 am 05:55 Cloudy with Mist and Fog 66 18.8 66 18.7 99 99 Calm 30.03 1017 1 1.60934 0 0
6:15 am 06:15 Cloudy with Fog 66 18.8 66 18.7 99 99 Calm 30.03 1017 0.5 0.80467 0 0
6:35 am 06:35 Mostly Cloudy with Fog 66 18.8 66 18.7 99 99 Calm 30.03 1017 0.25 0.402335 0 0
6:55 am 06:55 Mostly Cloudy with Mist and Fog 66 18.7 65 18.6 99 99 Calm 30.03 1017 1 1.60934 0 0
7:15 am 07:15 Cloudy with Fog 65 18.3 65 18.3 100 100 Calm 30.03 1017 0.25 0.402335 0 0
7:35 am 07:35 Cloudy with Fog 65 18.5 65 18.4 99 99 Calm 30.06 1018 5 8.0467 0 0
7:55 am 07:55 Cloudy with Mist and Fog 66 19 66 18.9 99 99 SW 3 6 30.06 1018 2 3.21868 0 0
8:15 am 08:15 Partly Cloudy with Light Rain 67 19.7 67 19.6 99 99 SW 3 6 30.06 1018 2 3.21868 0 0
8:35 am 08:35 Partly Cloudy with Mist and Fog 69 20.5 69 20.4 99 99 Calm 30.06 1018 2.5 4.02335 0 0
8:55 am 08:55 Sunny with Mist and Fog 69 20.8 69 20.6 99 99 Calm 30.06 1018 5 8.0467 0 0
9:15 am 09:15 Partly Cloudy with Mist and Fog 71 21.6 70 21.3 98 98 Calm 30.06 1018 7 11.26538 0 0
9:35 am 09:35 Sunny 73 22.6 70 21.1 91 91 SSW 6 9 30.06 1018 10 16.0934 0 0
9:55 am 09:55 Sunny 73 22.7 70 20.9 90 90 SSW 6 9 30.06 1018 10 16.0934 0 0
10:15 am 10:15 Sunny 74 23.3 70 21.1 88 88 S 7 11 30.06 1018 10 16.0934 0 0
10:35 am 10:35 Partly Cloudy 76 24.3 71 21.4 84 84 SW 7 11 30.06 1018 10 16.0934 0 0
10:55 am 10:55 Sunny 78 25.3 71 21.9 82 82 SSW 8 13 30.06 1018 10 16.0934 0 0
11:15 am 11:15 Sunny 80 26.5 72 22.3 78 78 SW 10 17 30.06 1018 10 16.0934 0 0
11:35 am 11:35 Sunny 79 26.3 71 21.7 76 76 SW 8 13 30.06 1018 10 16.0934 0 0
11:55 am 11:55 Partly Cloudy 81 27 72 22 74 74 S 9 15 30.06 1018 10 16.0934 0 0
12:15 pm 12:15 Sunny 82 27.8 72 22.1 71 71 SSW 10 17 30.06 1018 10 16.0934 0 0
12:35 pm 12:35 Partly Cloudy 84 28.7 72 22 67 67 SW 13 20 30.06 1018 10 16.0934 0 0
12:55 pm 12:55 Sunny 84 28.8 72 22.1 67 67 S 12 19 30.03 1017 10 16.0934 0 0
1:15 pm 13:15 Partly Cloudy 85 29.6 71 21.8 63 63 SW 13 20 30.03 1017 10 16.0934 0 0
1:35 pm 13:35 Sunny 85 29.5 72 22 64 64 SSW 10 17 30.03 1017 10 16.0934 0 0
1:55 pm 13:55 Sunny 86 29.8 71 21.8 62 62 SSW 15 24 30 1016 10 16.0934 0 0
2:15 pm 14:15 Partly Cloudy 86 29.9 70 20.9 59 59 SSW 12 19 30 1016 10 16.0934 0 0
2:35 pm 14:35 Sunny 87 30.4 70 20.9 57 57 SW 14 22 29.97 1015 10 16.0934 0 0
2:55 pm 14:55 Sunny 87 30.5 70 21 57 57 S 17 28 29.97 1015 10 16.0934 0 0
3:15 pm 15:15 Sunny 87 30.3 68 20.1 54 54 SW 14 22 29.97 1015 10 16.0934 0 0
3:35 pm 15:35 Sunny 87 30.5 69 20.3 54 54 SW 12 19 29.97 1015 10 16.0934 0 0
3:55 pm 15:55 Sunny 87 30.7 68 20.2 54 54 SW 15 24 29.97 1015 10 16.0934 0 0
4:15 pm 16:15 Sunny 88 30.9 69 20.3 53 53 SW 12 19 29.97 1015 10 16.0934 0 0
4:35 pm 16:35 Sunny 87 30.6 69 20.5 55 55 SW 14 22 29.97 1015 10 16.0934 0 0
4:55 pm 16:55 Partly Cloudy 87 30.3 69 20.4 55 55 SW 12 19 29.97 1015 10 16.0934 0 0
5:15 pm 17:15 Sunny 86 30 70 20.9 58 58 SSW 9 15 29.97 1015 10 16.0934 0 0
5:35 pm 17:35 Partly Cloudy 86 29.9 69 20.5 57 57 SSW 12 19 29.97 1015 10 16.0934 0 0
5:55 pm 17:55 Sunny 85 29.5 69 20.5 58 58 SW 12 19 29.97 1015 10 16.0934 0 0
6:15 pm 18:15 Sunny 84 29 69 20.3 59 59 SSW 10 17 29.97 1015 10 16.0934 0 0
6:35 pm 18:35 Sunny 83 28.2 69 20.5 63 63 SSW 9 15 30.03 1017 10 16.0934 0 0
6:55 pm 18:55 Sunny 82 27.6 69 20.5 65 65 SSW 7 11 30.03 1017 10 16.0934 0 0
7:15 pm 19:15 Clear 80 26.4 69 20.5 70 70 S 7 11 30.03 1017 10 16.0934 0 0
7:35 pm 19:35 Clear 78 25.7 69 20.5 73 73 SW 6 9 30.03 1017 10 16.0934 0 0
7:55 pm 19:55 Clear 76 24.2 69 20.8 81 81 SW 6 9 30.03 1017 10 16.0934 0 0
8:15 pm 20:15 Clear 77 24.9 69 20.4 76 76 SSW 7 11 30.03 1017 10 16.0934 0 0
8:35 pm 20:35 Clear 75 23.9 69 20.6 82 82 SW 5 7 30.03 1017 10 16.0934 0 0
8:55 pm 20:55 Clear 74 23.2 69 20.6 85 85 SSW 5 7 30.03 1017 10 16.0934 0 0
9:15 pm 21:15 Clear 74 23.1 69 20.4 85 85 Calm 30.03 1017 10 16.0934 0 0
9:35 pm 21:35 Clear 71 21.7 69 20.4 92 92 Calm 30.03 1017 10 16.0934 0 0
9:55 pm 21:55 Clear 70 21 68 20.2 95 95 W 3 6 30.06 1018 10 16.0934 0 0
10:15 pm 22:15 Clear 71 21.4 68 20.1 92 92 W 3 6 30.06 1018 10 16.0934 0 0
10:35 pm 22:35 Clear 71 21.8 68 20 90 90 SW 3 6 30.06 1018 10 16.0934 0 0
10:55 pm 22:55 Clear 69 20.8 68 20 95 95 Calm 30.06 1018 10 16.0934 0 0
11:15 pm 23:15 Clear 69 20.6 67 19.5 93 93 Calm 30.06 1018 10 16.0934 0 0
11:35 pm 23:35 Clear 69 20.5 68 19.9 96 96 Calm 30.06 1018 10 16.0934 0 0
11:55 pm 23:55 Clear with Mist and Fog 68 20.1 67 19.7 98 98 Calm 30.06 1018 5 8.0467 0 0

Powered by AerisWeather